Louisville, KY

4:02 PM EST on December 02, 2016 (GMT -0500)
Bowman

Weather History for KLOU - June, 2013

Change the Weather History Date:

Friday, June 28, 2013

  Actual Average Record
Temperature  
Mean Temperature 81 °F 78 °F  
Max Temperature 89 °F 87 °F 101 °F (1952)
Min Temperature 73 °F 68 °F 53 °F (1961)
Degree Days  
Heating Degree Days 0 0  
Month to date heating degree days 0 2  
Since 1 June heating degree days 0 2  
Since 1 July heating degree days 4329 4267  
Cooling Degree Days 16 12  
Month to date cooling degree days 281 280  
Year to date cooling degree days 467 427  
Since 1 June cooling degree days 281 280  
Growing Degree Days 30 (Base 50)    
Moisture  
Dew Point 62 °F    
Average Humidity 57    
Maximum Humidity 79    
Minimum Humidity 34    
Precipitation  
Precipitation 0.00 in 0.11 in 1.82 in (1957)
Month to date precipitation 7.97 3.90  
Year to date precipitation 26.70 23.82  
Sea Level Pressure  
Sea Level Pressure 29.69 in    
Wind  
Wind Speed 10 mph (WNW)    
Max Wind Speed 23 mph    
Max Gust Speed 29 mph    
Visibility 10 miles    
Events      
T = Trace of Precipitation, MM = Missing Value Source: NWS Daily Summary

Daily Weather History Graph

Daily Weather History Graph

Search for Another Location

Airport or City:

Trip Planner

Search our weather history database for the weather conditions in past years. The results will help you decide how hot, cold, wet, or windy it might be!

Date:

Astronomy

Jun. 28, 2013 Rise Set
Actual Time 6:21 AM EDT 9:10 PM EDT
Civil Twilight 5:50 AM EDT 9:41 PM EDT
Nautical Twilight 5:10 AM EDT 10:21 PM EDT
Astronomical Twilight 4:25 AM EDT 11:06 PM EDT
Moon 12:11 AM EDT (6/28) 12:23 PM EDT (6/28)
Length of Visible Light 15h 51m
Length of Day
14h 48m
Waning Gibbous, 66% of the Moon is Illuminated
Jun 28
Waning Gibbous
Jun 30
Last Quarter
Jul 8
New
Jul 15
First Quarter
Jul 22
Full

Hourly Weather History & Observations

Time (EDT) Temp. Heat Index Dew Point Humidity Pressure Visibility Wind Dir Wind Speed Gust Speed Precip Events Conditions
12:53 AM 78.1 °F - 71.1 °F 79% 29.75 in 10.0 mi SW 4.6 mph - N/A   Clear
1:53 AM 78.1 °F - 70.0 °F 76% 29.74 in 10.0 mi WSW 6.9 mph - N/A   Clear
2:53 AM 78.1 °F - 69.1 °F 74% 29.74 in 10.0 mi WSW 6.9 mph - N/A   Clear
3:53 AM 77.0 °F - 66.9 °F 71% 29.73 in 10.0 mi West 6.9 mph - N/A   Clear
4:53 AM 75.9 °F - 66.0 °F 71% 29.73 in 10.0 mi WNW 3.5 mph - N/A   Clear
5:53 AM 75.0 °F - 66.0 °F 73% 29.72 in 10.0 mi West 4.6 mph - N/A   Clear
6:53 AM 73.9 °F - 66.0 °F 76% 29.72 in 10.0 mi WSW 3.5 mph - N/A   Clear
7:53 AM 77.0 °F - 66.0 °F 69% 29.72 in 10.0 mi WNW 6.9 mph - N/A   Clear
8:53 AM 78.1 °F - 64.9 °F 64% 29.72 in 10.0 mi WNW 6.9 mph - N/A   Clear
9:53 AM 80.1 °F 81.9 °F 64.9 °F 60% 29.72 in 10.0 mi WNW 9.2 mph - N/A   Clear
10:53 AM 82.0 °F 83.8 °F 64.9 °F 56% 29.72 in 10.0 mi WNW 11.5 mph - N/A   Clear
11:53 AM 84.0 °F 84.5 °F 62.1 °F 47% 29.71 in 10.0 mi WNW 12.7 mph - N/A   Clear
12:53 PM 86.0 °F 85.4 °F 59.0 °F 40% 29.70 in 10.0 mi WNW 12.7 mph 20.7 mph N/A   Partly Cloudy
1:53 PM 87.1 °F 85.7 °F 55.9 °F 35% 29.69 in 10.0 mi WNW 18.4 mph - N/A   Clear
2:53 PM 88.0 °F 86.7 °F 57.0 °F 35% 29.67 in 10.0 mi NW 18.4 mph 23.0 mph N/A   Partly Cloudy
3:53 PM 87.1 °F 85.9 °F 57.0 °F 36% 29.65 in 10.0 mi WNW 16.1 mph 23.0 mph N/A   Partly Cloudy
4:53 PM 86.0 °F 84.7 °F 55.9 °F 36% 29.63 in 10.0 mi WNW 12.7 mph 21.9 mph N/A   Clear
5:53 PM 87.1 °F 85.7 °F 55.9 °F 35% 29.62 in 10.0 mi WNW 15.0 mph 21.9 mph N/A   Partly Cloudy
6:53 PM 86.0 °F 85.4 °F 59.0 °F 40% 29.61 in 10.0 mi West 16.1 mph 23.0 mph N/A   Mostly Cloudy
7:53 PM 84.9 °F 85.0 °F 61.0 °F 44% 29.62 in 10.0 mi WNW 6.9 mph - N/A   Partly Cloudy
8:53 PM 82.9 °F 82.1 °F 55.9 °F 39% 29.63 in 10.0 mi WNW 9.2 mph - N/A   Partly Cloudy
9:53 PM 82.0 °F 81.6 °F 55.9 °F 41% 29.64 in 10.0 mi WNW 8.1 mph - N/A   Overcast
10:53 PM 77.0 °F - 57.0 °F 50% 29.65 in 10.0 mi WNW 5.8 mph - N/A   Clear
11:53 PM 73.9 °F - 59.0 °F 59% 29.65 in 10.0 mi Calm Calm - N/A   Clear